Location: Burbank
(38.7788°N, 114.0429°W)
Time: 05:03:52
(UTC+00:00)

Explorer 7 - Visible Passes

Search period start: 10 May 2026 00:00
Search period end: 20 May 2026 00:00
Orbit: 427 x 536 km, 50.2° (Epoch: 9 May)

Date Brightness Start Highest point End Pass type
(mag) Time Alt. Az. Time Alt. Az. Time Alt. Az.
14 May 8.5 11:29:53 10° S 11:32:33 20° SE 11:35:17 10° E visible
15 May 8.6 11:02:39 11° S 11:04:52 18° SE 11:07:24 10° E visible
16 May 8.5 10:36:09 15° SSE 10:37:09 17° SE 10:39:29 10° E visible
17 May 8.7 10:09:33 15° SE 10:09:33 15° SE 10:11:32 10° E visible
17 May 6.6 11:43:51 10° WSW 11:47:19 63° NNW 11:50:56 10° NE visible
18 May 9.1 09:42:53 12° ESE 09:42:53 12° ESE 09:43:31 10° E visible
18 May 6.5 11:17:06 18° WSW 11:19:33 69° NW 11:23:09 10° NE visible
19 May 6.4 10:50:21 33° WSW 10:51:46 75° NW 10:55:21 10° NE visible
